ION Passionate Paula

operational
NORAD ID: 64545 Int'l Des: 2025-135 Owner: DORBIT Country: I
LEOCIRCULARRETROGRADESSO

关于 ION Passionate Paula

正在加载描述...

实时位置

正在加载3D地球...

即将过境

高度历史

Altitude vs Time

uPlot chart will show altitude changes over time

两行轨道根数

1 64545U 25135T 26062.32690874 .00005737 00000-0 26659-3 0 9998
2 64545 97.4581 178.3819 0002397 153.7113 206.4244 15.20376342 38768
Epoch: Mar 3, 2026 • Age: 24 hours

当前状态

高度 508.9 km
速度 7.61 km/s
星下点 40.35°N, 160.16°W
发射日期 Jun 23, 2025
运行时间 0.6 years
类型 other

技术详情

分类 Payload
质量 150.00 kg
干质量 150.00 kg
总质量 220.00 kg
长度 0.40 m
直径 0.40 m
跨度 0.40 m
形状 Box
制造商 DORBIT
平台类型 ION-SC
阶段状态 In Orbit
所有者/国家 DORBIT/I

大型星座

Loading constellations...